FW4125 Weather Reports


Display with metric or nautical units.
time (UTC)temp
F
wind
direction
speed
MPH
gust
MPH
rain 1hr
in
rain 24hr
in
rain mn
in
humidity
%
barometer
mb
20260902043044 86 131 0.0 0.0 0.00 0.03 0.02 46 795.8
20260902041556 86 133 0.0 0.0 0.00 0.03 0.02 46 795.8
20260902040056 86 137 0.0 0.0 0.00 0.03 0.02 46 795.8
20260902034606 86 132 0.0 0.0 0.00 0.03 0.02 46 795.8
20260902033103 87 131 0.0 0.0 0.00 0.03 0.02 46 795.8
20260902031502 87 135 0.0 0.0 0.00 0.03 0.02 44 795.8
20260902030003 88 150 0.0 0.0 0.00 0.03 0.02 43 795.8
20260902024505 88 143 0.0 0.0 0.00 0.03 0.02 42 795.8
20260902023007 89 148 0.0 0.0 0.00 0.03 0.02 40 795.8
20260902021511 90 130 0.0 0.0 0.00 0.03 0.02 40 795.8
20260902020003 90 130 0.0 0.0 0.00 0.03 0.02 39 795.8
20260902014506 91 130 0.0 0.0 0.00 0.03 0.02 37 795.8
20260902013009 92 130 0.0 0.0 0.00 0.03 0.02 36 795.8
20260902011511 93 130 0.0 0.0 0.00 0.03 0.02 34 795.8
20260902010018 94 130 0.0 0.0 0.00 0.03 0.02 33 795.8
20260902004512 95 130 0.0 0.0 0.00 0.03 0.02 31 795.8
20260902003015 96 130 0.0 0.0 0.00 0.03 0.02 30 795.8
20260902001518 96 130 0.0 0.0 0.00 0.03 0.02 31 795.8
20260902000026 96 130 0.0 0.0 0.00 0.03 0.02 31 795.8
20260901234519 97 113 0.0 0.0 0.00 0.03 0.02 30 795.8
20260901233024 98 100 0.0 2.0 0.00 0.03 0.02 29 795.8
20260901231520 98 149 0.0 3.0 0.00 0.03 0.02 29 795.8
20260901230022 98 152 0.0 2.0 0.00 0.03 0.02 27 795.8
20260901224523 99 152 0.0 2.0 0.00 0.03 0.02 27 795.8
20260901223023 100 113 1.0 3.0 0.00 0.03 0.02 27 795.8
20260901221528 100 131 0.0 3.0 0.00 0.03 0.02 25 795.8
20260901220042 101 82 0.0 2.0 0.00 0.03 0.02 25 795.8
20260901214540 101 90 1.0 3.0 0.00 0.03 0.02 26 795.8
20260901213038 101 40 0.0 3.0 0.00 0.03 0.02 26 795.8
20260901211542 100 81 1.0 3.0 0.00 0.03 0.02 26 795.8
20260901210057 101 114 0.0 3.0 0.00 0.03 0.02 26 873.6
20260901204549 101 259 1.0 3.0 0.00 0.03 0.02 26 873.6
20260901203107 101 212 0.0 3.0 0.00 0.03 0.02 26 873.6
20260901201554 101 218 0.0 3.0 0.00 0.03 0.02 28 873.6
20260901200058 100 108 1.0 4.0 0.00 0.03 0.02 28 873.6
20260901194555 99 323 0.0 3.0 0.00 0.03 0.02 31 873.6
20260901193054 99 90 1.0 3.0 0.00 0.03 0.02 31 873.6
20260901191605 98 145 0.0 3.0 0.00 0.03 0.02 32 873.6
20260901190112 98 100 0.0 2.0 0.00 0.03 0.02 31 873.6
20260901184559 98 100 1.0 4.0 0.00 0.03 0.02 32 873.6
20260901183056 97 127 0.0 4.0 0.00 0.03 0.02 35 873.6
20260901181556 96 223 0.0 3.0 0.00 0.03 0.02 35 873.6
20260901180057 95 166 0.0 4.0 0.00 0.03 0.02 35 873.6
20260901174615 94 150 1.0 4.0 0.00 0.03 0.02 36 873.6
20260901173058 93 245 1.0 5.0 0.00 0.03 0.02 37 873.6
20260901171559 91 266 2.0 6.0 0.00 0.03 0.02 39 873.6
20260901170059 89 222 0.0 4.0 0.00 0.03 0.02 44 873.6
20260901164555 88 216 1.0 3.0 0.00 0.03 0.02 45 873.6
20260901163054 86 223 0.0 4.0 0.00 0.03 0.02 48 873.6
20260901161605 85 261 0.0 3.0 0.00 0.03 0.02 51 873.6
20260901160043 84 269 0.0 3.0 0.00 0.03 0.02 53 873.6
20260901154544 83 235 1.0 3.0 0.00 0.03 0.02 55 873.6
20260901153044 81 259 0.0 3.0 0.00 0.03 0.02 58 873.6
20260901151539 80 259 0.0 3.0 0.00 0.03 0.02 59 873.6
20260901150043 79 277 0.0 2.0 0.00 0.03 0.02 61 873.6
20260901144547 78 275 0.0 3.0 0.00 0.03 0.02 63 873.6
20260901143100 77 254 0.0 2.0 0.00 0.03 0.02 64 873.6
20260901141607 77 210 0.0 0.0 0.00 0.03 0.02 65 873.6
20260901140056 77 210 0.0 0.0 0.00 0.03 0.02 66 873.6
20260901134558 76 224 0.0 0.0 0.00 0.03 0.02 66 873.6
20260901133107 76 224 0.0 0.0 0.01 0.03 0.02 65 873.6
20260901131603 75 224 0.0 0.0 0.01 0.03 0.02 64 873.6
20260901124505 75 224 0.0 0.0 0.01 0.03 0.02 62 873.6
20260901123008 76 224 0.0 0.0 0.00 0.02 0.01 61 873.6
20260901121509 76 224 0.0 0.0 0.00 0.02 0.01 60 873.6
20260901120010 77 224 0.0 0.0 0.00 0.02 0.01 59 873.6
20260901114510 78 224 0.0 0.0 0.00 0.02 0.01 57 873.6
20260901113012 79 224 0.0 0.0 0.00 0.03 0.01 56 873.6
20260901111517 79 224 0.0 0.0 0.00 0.03 0.01 55 873.6
20260901110015 80 231 0.0 0.0 0.00 0.03 0.01 55 873.6
20260901104538 80 231 0.0 0.0 0.00 0.03 0.01 54 873.6
20260901103019 80 231 0.0 0.0 0.00 0.03 0.01 54 873.6
20260901101522 80 231 0.0 0.0 0.00 0.03 0.01 54 873.6
20260901100024 80 231 0.0 2.0 0.00 0.03 0.01 54 873.6
20260901094521 80 231 0.0 3.0 0.00 0.03 0.01 55 873.6
20260901093022 80 230 1.0 4.0 0.00 0.03 0.01 56 873.6
20260901091521 79 234 1.0 4.0 0.00 0.03 0.01 57 873.6
20260901090028 77 187 0.0 2.0 0.00 0.03 0.01 59 873.6
20260901084523 76 186 0.0 2.0 0.00 0.03 0.01 61 873.6
20260901083022 75 185 0.0 0.0 0.00 0.03 0.01 63 873.6
20260901081526 74 105 0.0 0.0 0.01 0.03 0.01 64 873.6
20260901080031 74 105 0.0 0.0 0.01 0.03 0.01 63 873.6
20260901074526 75 105 0.0 0.0 0.01 0.03 0.01 63 873.6
20260901073032 75 105 0.0 0.0 0.01 0.03 0.01 62 873.6
20260901071536 75 104 0.0 1.0 0.00 0.02 0.00 62 873.6
20260901070036 75 100 0.0 0.0 0.00 0.02 0.00 62 873.6
20260901064540 75 100 0.0 0.0 0.00 0.02 0.00 61 873.6
20260901063044 75 100 0.0 0.0 0.00 0.02 0.00 60 873.6
20260901061547 75 100 0.0 0.0 0.00 0.02 0.00 59 873.6
20260901060048 75 100 0.0 0.0 0.00 0.02 0.00 58 873.6
20260901054550 76 100 0.0 0.0 0.00 0.02 0.00 57 873.6
20260901053111 76 100 0.0 0.0 0.01 0.03 0.02 54 873.6
20260901051556 78 100 0.0 0.0 0.01 0.03 0.02 51 873.6
20260901050056 80 100 0.0 0.0 0.01 0.03 0.02 48 873.6
20260901044606 82 100 0.0 1.0 0.01 0.03 0.02 46 873.6